Estación de Morza Norte

Ultimos registro cada 15 minutos 60
Estación Fecha / Hora Temperatura Humedad Lluvia Velocidad Dirección Radiación Presion
60 Morza Norte 03-05-2026 14:45 17,8 53 0 0,4 150 146 1019,1
59 Morza Norte 03-05-2026 14:30 17,9 99 0 0 150 137 1019,1
58 Morza Norte 03-05-2026 14:15 18,2 50 0 0 165 132 1019,3
57 Morza Norte 03-05-2026 14:00 18,3 49 0 0 169 148 1019,2
56 Morza Norte 03-05-2026 13:45 18,3 46 0 0 163 181 1019,4
55 Morza Norte 03-05-2026 13:30 18,2 99 0 0 245 216 1019,4
54 Morza Norte 03-05-2026 13:15 18,3 47 0 0,4 285 202 1019,5
53 Morza Norte 03-05-2026 13:00 18,2 47 0 0 296 202 1019,4
52 Morza Norte 03-05-2026 12:45 18,1 47 0 0 284 237 1019,6
51 Morza Norte 03-05-2026 12:30 18,2 99 0 0,4 275 229 1019,9
50 Morza Norte 03-05-2026 12:15 17,9 47 0 0 13 241 1019,9
49 Morza Norte 03-05-2026 12:00 17,6 48 0 0 358 218 1020,1
48 Morza Norte 03-05-2026 11:45 17,4 46 0 0 358 260 1020,4
47 Morza Norte 03-05-2026 11:30 17,2 99 0 0,4 279 255 1020,5
46 Morza Norte 03-05-2026 11:15 17,2 49 0 0 300 236 1020,6
45 Morza Norte 03-05-2026 11:00 16,9 49 0 0 358 313 1020,6
44 Morza Norte 03-05-2026 10:45 16,1 54 0 0 312 304 1020,4
43 Morza Norte 03-05-2026 10:30 15,1 99 0 0 312 269 1020,6
42 Morza Norte 03-05-2026 10:15 13,7 64 0 0 295 466 1020,5
41 Morza Norte 03-05-2026 10:00 13,1 66 0 0 76 418 1020,5
40 Morza Norte 03-05-2026 09:45 12,3 71 0 0,4 109 381 1020,5
39 Morza Norte 03-05-2026 09:30 11,1 99 0 0 71 362 1020,5
38 Morza Norte 03-05-2026 09:15 10,3 74 0 0 52 290 1020,4
37 Morza Norte 03-05-2026 09:00 9,2 74 0 0 35 279 1020,3
36 Morza Norte 03-05-2026 08:45 7,4 74 0 0 36 234 1019,9
35 Morza Norte 03-05-2026 08:30 5,6 99 0 0 169 155 1019,8
34 Morza Norte 03-05-2026 08:15 3,8 73 0 0 169 120 1019,6
33 Morza Norte 03-05-2026 08:00 3,2 72 0 0 169 18 1019
32 Morza Norte 03-05-2026 07:45 3,2 72 0 0 169 37 1019,3
31 Morza Norte 03-05-2026 07:30 3,3 99 0 0 153 7 1018,7
30 Morza Norte 03-05-2026 07:15 3,1 72 0 0 149 0 1018,4
29 Morza Norte 03-05-2026 07:00 2,6 73 0 0 163 0 1018,3
28 Morza Norte 03-05-2026 06:45 1,8 72 0 0 141 0 1018,4
27 Morza Norte 03-05-2026 06:30 2,1 99 0 0 152 0 1018,3
26 Morza Norte 03-05-2026 06:15 1,8 72 0,2 0 152 0 1018,4
25 Morza Norte 03-05-2026 06:00 2 72 0 0 153 0 1018,3
24 Morza Norte 03-05-2026 05:45 1,8 71 0 0 152 0 1018,4
23 Morza Norte 03-05-2026 05:30 1,9 99 0 0 152 0 1018,6
22 Morza Norte 03-05-2026 05:15 2,4 71 0 0 153 0 1018,8
21 Morza Norte 03-05-2026 05:00 3,3 71 0 0 153 0 1018,9
20 Morza Norte 03-05-2026 04:45 3,4 72 0 0 150 0 1018,9
19 Morza Norte 03-05-2026 04:30 3,4 99 0 0 147 0 1019,1
18 Morza Norte 03-05-2026 04:15 3,4 72 0 0 144 0 1019,2
17 Morza Norte 03-05-2026 04:00 3,1 72 0 0 144 0 1019,1
16 Morza Norte 03-05-2026 03:45 3,3 72 0 0 143 0 1018,9
15 Morza Norte 03-05-2026 03:30 3,3 99 0 0 143 0 1018,8
14 Morza Norte 03-05-2026 03:15 3,7 71 0 0 143 0 1019
13 Morza Norte 03-05-2026 03:00 3,9 71 0 0 143 0 1019,1
12 Morza Norte 03-05-2026 02:45 3,6 71 0 0 143 0 1019
11 Morza Norte 03-05-2026 02:30 3,8 99 0 0 143 0 1019,3
10 Morza Norte 03-05-2026 02:15 4,2 71 0 0 143 0 1019,4
9 Morza Norte 03-05-2026 02:00 4,8 71 0 0 143 0 1019,2
8 Morza Norte 03-05-2026 01:45 5 71 0 0 143 0 1018,8
7 Morza Norte 03-05-2026 01:30 5,7 99 0 0 143 0 1018,8
6 Morza Norte 03-05-2026 01:15 5,3 71 0 0 141 0 1018,8
5 Morza Norte 03-05-2026 01:00 5,6 71 0 0 140 0 1018,8
4 Morza Norte 03-05-2026 00:45 5,1 71 0 0 161 0 1018,9
3 Morza Norte 03-05-2026 00:30 5,7 99 0 0 161 0 1018,9
2 Morza Norte 03-05-2026 00:15 5,7 71 0 0 151 0 1018,8
1 Morza Norte 03-05-2026 00:00 5,2 70 0 0 150 0 1019